"Pseudo-MPEC" for P22oVrz

Created 2026 Aug 26 0:35:11 UT using Find_Orb

Click here for an explanation of pseudo-MPECs

 
 Astrometry: 
     P22oVrz*0C2026 08 06.48397022 09 22.180-19 49 49.84   ~8OFo 19.96wXNEOCPF52
     P22oVrz 0C2026 08 06.49410322 09 20.265-19 50 01.44   ~8OFo 19.77wXNEOCPF52
     P22oVrz 0C2026 08 06.50429622 09 18.299-19 50 13.25   ~8OFo 20.53wXNEOCPF52
     P22oVrz 0C2026 08 07.01618022 07 41.578-19 59 51.90   ~8OFox      WNEOCPJ95
     P22oVrz 0C2026 08 07.02487222 07 39.955-20 00 00.79   ~8OFox      WNEOCPJ95
     P22oVrz KB2026 08 07.05535722 07 34.05 -20 00 36.1    ~8OFo 19.8 GVNEOCPL01
     P22oVrz KB2026 08 07.06205022 07 32.72 -20 00 44.3    ~8OFox20.3 GVNEOCPL01
     P22oVrz 0C2026 08 07.43881322 06 21.275-20 07 44.10   ~8OFo 20.97GVNEOCPF51
     P22oVrz 0C2026 08 07.44879822 06 19.357-20 07 55.09   ~8OFo 20.80GVNEOCPF51
     P22oVrz 0C2026 08 07.45877222 06 17.440-20 08 06.19   ~8OFo 20.88GVNEOCPF51
     P22oVrz 0C2026 08 07.46873922 06 15.532-20 08 17.10   ~8OFo 20.47GVNEOCPF51
     P22oVrz 3C2026 08 07.48971022 06 11.486-20 08 40.98   ~8OFo 21.46GVNEOCPT14
     P22oVrz 3C2026 08 07.49091322 06 11.255-20 08 42.33   ~8OFo 21.45GVNEOCPT14
     P22oVrz 3C2026 08 07.49211522 06 11.027-20 08 43.65   ~8OFo 21.40GVNEOCPT14
     P22oVrz 3C2026 08 08.49854122 02 58.543-20 27 23.41   ~8OFo 21.59GVNEOCPT14
     P22oVrz 3C2026 08 08.49974222 02 58.310-20 27 24.64   ~8OFo 21.48GVNEOCPT14
     P22oVrz 3C2026 08 08.50094722 02 58.073-20 27 26.08   ~8OFo 21.49GVNEOCPT14
     P22oVrz 0C2026 08 12.42086921 50 15.670-21 37 47.50   ~8OFo 21.13wXNEOCPF51
     P22oVrz 0C2026 08 12.43201721 50 13.464-21 37 58.94   ~8OFo 21.03wXNEOCPF51
     P22oVrz 0C2026 08 12.44320621 50 11.279-21 38 10.23   ~8OFox21.19wXNEOCPF51
     P22oVrz 0C2026 08 12.45435621 50 09.016-21 38 22.46   ~8OFo 21.19wXNEOCPF51
     P22oVrz 1C2026 08 15.53232 21 40 01.16 -22 30 17.1    ~8OFo       VNEOCPQ62
     P22oVrz 1C2026 08 15.53828 21 39 59.95 -22 30 23.4    ~8OFo 21.1 GVNEOCPQ62

Station data:
(F51) Pan-STARRS 1, Haleakala  (N20.707234 W156.255910)  US/Hawaii.
   Observers J. Herman, T. Lowe, P. Minguez, A. Schultz, I. Smith. Measurers
   K. Chambers, T. de Boer, J. Fairlamb, H. Gao, M. Huber, C.-C. Lin, E.
   Magnier, Y. Ramanjooloo, R. Wainscoat, R. Weryk. 1.8-m Ritchey-Chrétien +
   CCD.
(F52) Pan-STARRS 2, Haleakala  (N20.707382 W156.255910)  US/Hawaii.
   Observers J. Herman, T. Lowe, P. Minguez, A. Schultz, I. Smith. Measurers
   K. Chambers, T. de Boer, J. Fairlamb, H. Gao, M. Huber, C.-C. Lin, E.
   Magnier, Y. Ramanjooloo, R. Wainscoat, R. Weryk. 1.8-m Ritchey-Chrétien +
   CCD.
(J95) Great Shefford  (N51.474969 W1.447003)  UK/England.  Observer P.
   Birtwhistle. 0.41-m f/6.3 Schmidt-Cassegrain + CCD.
(L01) Višnjan Observatory, Tičan  (N45.290897 E13.749300)  Croatia.
   Observers K. Korlević, L. Poropat. Measurer K. Korlevic. 1.0-m f/2.9
   reflector + CCD.
(Q62) iTelescope Observatory, Siding Spring  (S31.273286 E149.064420)
   Australia/NSW.  Observer H. Sato. 0.30-m f/9 reflector + CCD.
(T14) Mauna Kea-UH/Tholen NEO Follow-Up (CFHT)  (N19.825252 W155.468876)
   US/Hawaii.  Observer R. Weryk. 3.6-m Canada-France-Hawaii Telescope.

Orbital elements:  P22oVrz
   Perihelion 2026 Jun 2.814687 +/- 3.62 TT = 19:33:08.9 (JD 2461194.314687)
Epoch 2026 Aug 15.0 TT = JDT 2461267.5   Ju: 0.3276   Sa: 0.5856   Ur: 0.2306
M   0.658732975 +/- 0.31            Ne: 0.8660                   AutoNEOCP
n   0.009000890 +/- 0.00438         Peri.  230.908335 +/- 0.9
a  22.88824021 +/- 29               Node   209.739729 +/- 0.18
e   0.86639296 +/- 0.0568           Incl.  174.146260 +/- 0.0039
P 109.50113                H 16.58  G  0.15   U  9.1
q 3.058029822 +/- 0.0161    Q 42.71845060 +/- 58          (J2000 ecliptic)
19 of 23 observations 2026 Aug. 6-15; mean residual 0".24
Residuals in arcseconds: 
260806 F52  .06+  .32+    260807 F51  .01-  .08+    260808 T14  .01+  .06-    
260806 F52  .27+  .16+    260807 F51  .02-  .16+    260812 F51  .04+  .03-    
260806 F52  .08-  .14-    260807 F51  .07+  .41+    260812 F51  .11+  .19+    
260807 J95( .50+  .76-)   260807 T14  .10-  .06-    260812 F51( .58+  .58+)   
260807 J95( 1.0+  .13+)   260807 T14  .10-  .06-    260812 F51  .13-  .01-    
260807 L01  .53+  1.1-    260807 T14  .06-  .04-    260815 Q62  .07+  .12+    
260807 L01( .20-  1.8-)   260808 T14  .06+  .05-    260815 Q62  .21-  .32-    
260807 F51  .00   .12-    260808 T14  .06+  .05+    

Ephemerides (geocentric):
Date (UTC) HH   RA             Dec           delta  r     elong  mag " sig PA
---- --------  ------------   ------------  ------ ------ -----  --- --------
2026 08 26 01  21 05 43.801   -24 59 21.68  2.1949 3.1532 157.7 21.3 5.19  45
2026 08 26 02  21 05 35.885   -24 59 51.30  2.1953 3.1533 157.6 21.3 5.23  45
2026 08 26 03  21 05 27.973   -25 00 20.88  2.1957 3.1534 157.5 21.3 5.27  45
2026 08 26 04  21 05 20.064   -25 00 50.40  2.1962 3.1535 157.5 21.3 5.31  46
2026 08 26 05  21 05 12.158   -25 01 19.88  2.1966 3.1536 157.4 21.3 5.34  46
2026 08 26 06  21 05 04.254   -25 01 49.31  2.1970 3.1536 157.3 21.3 5.38  46
2026 08 26 07  21 04 56.354   -25 02 18.70  2.1974 3.1537 157.3 21.3 5.42  46
2026 08 26 08  21 04 48.457   -25 02 48.03  2.1978 3.1538 157.2 21.3 5.46  46
2026 08 26 09  21 04 40.563   -25 03 17.32  2.1982 3.1539 157.1 21.3 5.50  46
2026 08 26 10  21 04 32.672   -25 03 46.56  2.1987 3.1540 157.1 21.3 5.54  46
2026 08 26 11  21 04 24.783   -25 04 15.76  2.1991 3.1541 157.0 21.3 5.58  46
2026 08 26 12  21 04 16.898   -25 04 44.90  2.1995 3.1542 156.9 21.3 5.62  46
2026 08 26 13  21 04 09.016   -25 05 14.00  2.1999 3.1543 156.9 21.3 5.66  46
2026 08 26 14  21 04 01.137   -25 05 43.05  2.2004 3.1544 156.8 21.3 5.70  46
2026 08 26 15  21 03 53.261   -25 06 12.05  2.2008 3.1545 156.7 21.3 5.74  46
2026 08 26 16  21 03 45.389   -25 06 41.01  2.2012 3.1546 156.7 21.3 5.78  47
2026 08 26 17  21 03 37.519   -25 07 09.91  2.2017 3.1547 156.6 21.3 5.82  47
2026 08 26 18  21 03 29.653   -25 07 38.77  2.2021 3.1548 156.5 21.3 5.86  47
2026 08 26 19  21 03 21.789   -25 08 07.58  2.2025 3.1549 156.5 21.3 5.90  47
2026 08 26 20  21 03 13.929   -25 08 36.34  2.2029 3.1549 156.4 21.3 5.94  47
2026 08 26 21  21 03 06.072   -25 09 05.06  2.2034 3.1550 156.3 21.3 5.98  47
2026 08 26 22  21 02 58.218   -25 09 33.73  2.2038 3.1551 156.3 21.3 6.02  47
2026 08 26 23  21 02 50.367   -25 10 02.35  2.2043 3.1552 156.2 21.3 6.06  47
2026 08 27 00  21 02 42.520   -25 10 30.92  2.2047 3.1553 156.1 21.3 6.11  47
2026 08 27 01  21 02 34.675   -25 10 59.44  2.2051 3.1554 156.1 21.3 6.15  47
2026 08 27 02  21 02 26.834   -25 11 27.92  2.2056 3.1555 156.0 21.3 6.19  47
2026 08 27 03  21 02 18.996   -25 11 56.35  2.2060 3.1556 155.9 21.3 6.23  47
2026 08 27 04  21 02 11.161   -25 12 24.73  2.2064 3.1557 155.9 21.3 6.27  47
2026 08 27 05  21 02 03.330   -25 12 53.06  2.2069 3.1558 155.8 21.3 6.32  47
2026 08 27 06  21 01 55.502   -25 13 21.35  2.2073 3.1559 155.7 21.3 6.36  48
2026 08 27 07  21 01 47.677   -25 13 49.59  2.2078 3.1560 155.7 21.3 6.40  48
2026 08 27 08  21 01 39.855   -25 14 17.78  2.2082 3.1561 155.6 21.3 6.44  48
2026 08 27 09  21 01 32.037   -25 14 45.92  2.2087 3.1562 155.5 21.3 6.49  48
2026 08 27 10  21 01 24.222   -25 15 14.02  2.2091 3.1562 155.5 21.3 6.53  48
2026 08 27 11  21 01 16.410   -25 15 42.06  2.2096 3.1563 155.4 21.3 6.57  48
2026 08 27 12  21 01 08.602   -25 16 10.06  2.2100 3.1564 155.3 21.3 6.62  48
2026 08 27 13  21 01 00.796   -25 16 38.01  2.2105 3.1565 155.3 21.3 6.66  48
2026 08 27 14  21 00 52.995   -25 17 05.92  2.2109 3.1566 155.2 21.3 6.71  48
2026 08 27 15  21 00 45.196   -25 17 33.77  2.2114 3.1567 155.1 21.4 6.75  48
2026 08 27 16  21 00 37.401   -25 18 01.58  2.2118 3.1568 155.1 21.4 6.80  48
2026 08 27 17  21 00 29.609   -25 18 29.34  2.2123 3.1569 155.0 21.4 6.84  48
2026 08 27 18  21 00 21.821   -25 18 57.06  2.2127 3.1570 154.9 21.4 6.88  48
2026 08 27 19  21 00 14.036   -25 19 24.72  2.2132 3.1571 154.9 21.4 6.93  48
2026 08 27 20  21 00 06.255   -25 19 52.34  2.2136 3.1572 154.8 21.4 6.97  49
2026 08 27 21  20 59 58.476   -25 20 19.91  2.2141 3.1573 154.7 21.4 7.02  49
2026 08 27 22  20 59 50.702   -25 20 47.43  2.2146 3.1574 154.7 21.4 7.07  49
2026 08 27 23  20 59 42.930   -25 21 14.91  2.2150 3.1575 154.6 21.4 7.11  49
2026 08 28 00  20 59 35.163   -25 21 42.34  2.2155 3.1576 154.5 21.4 7.16  49